Regional Weather Roundup
Issued by NWS

Home | Current Version | Previous Version | Graphics & Text | Print | Product List | Glossary On
Versions: 1 2 3 4 5 6 7 8 9 10 11 12 13 14 15 16 17 18 19 20 21 22 23 24 25 26 27
000
ASUS45 KBOU 221307
RWRCO

WEATHER ROUNDUP FOR COLORADO
NATIONAL WEATHER SERVICE DENVER/BOULDER CO
700 AM MDT THU JUN 22 2017

NOTE: "FAIR" INDICATES FEW OR NO CLOUDS BELOW 12000 FEET WITH NO
SIGNIFICANT WEATHER AND/OR OBSTRUCTIONS TO VISIBILITY.

COZ001>005-013-030-031-221400-
...NORTHWEST COLORADO...

CITY           SKY/WX    TMP DP  RH WIND       PRES   REMARKS
CRAIG          FAIR      56  47  71 NW3       30.05F
HAYDEN         FAIR      55  39  54 SE7       30.09S
MEEKER         FAIR      58  44  60 E6        30.07R
RABBIT EARS PA FAIR      54  32  43 W5        30.37S
STEAMBOAT SPGS FAIR      53  42  64 NE3       30.12R
WALDEN         FAIR      52  39  62 S8        30.19S
$$

COZ006>008-011-221400-
...WEST CENTRAL VALLEYS...

CITY           SKY/WX    TMP DP  RH WIND       PRES   REMARKS
GRAND JUNCTION FAIR      71  42  35 S9        29.91F
MONTROSE       FAIR      64  37  36 SE12      30.04S
EAGLE          SUNNY     54  37  54 SE7       30.15S
RIFLE          FAIR      61  42  49 E3        30.02S
DELTA          FAIR      69  38  32 NE6       30.00R
NUCLA          FAIR      63  34  34 SE9       30.07F
$$

COZ017>023-064>068-221400-
...SOUTHWEST COLORADO...

CITY           SKY/WX    TMP DP  RH WIND       PRES   REMARKS
DURANGO        FAIR      56  36  47 NE5       30.11R
CORTEZ         FAIR      57  43  59 E6        30.05R
PAGOSA SPRINGS FAIR      56  36  46 CALM      30.21R
TELLURIDE      FAIR      57  32  38 SE6       30.33S
WOLF CREEK PAS FAIR      54  27  35 SW8       30.58S
$$

COZ009-010-012-014-032>034-037-058>063-221400-
...CENTRAL COLORADO...

CITY           SKY/WX    TMP DP  RH WIND       PRES   REMARKS
ASPEN          FAIR      53  39  59 SW6       30.19S
BUENA VISTA    FAIR      55  32  41 SE3       30.22R
COPPER MTN     FAIR      55  27  33 SW6       30.50F
BERTHOUD PASS  FAIR      46  34  61 NW23G45   30.50R
COTTONWOOD PAS FAIR      64  23  20 E3        30.35S
GUNNISON       LGT RAIN  53  37  54 NW7       30.26F
KREMMLING      NOT AVBL
LEADVILLE      FAIR      46  31  55 CALM      30.34F
MONARCH PASS   FAIR      54  28  37 SW16      30.62S
SALIDA         FAIR      59  33  37 N5        30.27S
SUNLIGHT       FAIR      52  30  43 S10       30.42F
WILKERSON PASS FAIR      54  27  35 W6        30.48S
$$

COZ069>075-221400-
...SAN LUIS VALLEY/SANGRE DE CRISTO MOUNTAINS...

CITY           SKY/WX    TMP DP  RH WIND       PRES   REMARKS
ALAMOSA        FAIR      48  43  82 W7        30.19R
DEL NORTE      FAIR      57  32  37 W12       30.22S
LA VETA PASS   FAIR      57  32  38 SW20      30.49S
SAGUACHE       FAIR      55  32  41 NW6       30.21S
$$

COZ035-036-038>040-221400-
...NORTHERN COLORADO FRONT RANGE...

CITY           SKY/WX    TMP DP  RH WIND       PRES   REMARKS
DENVER INTL AP PTSUNNY   74  39  28 SW13      29.92R
DMNS CITY PARK   N/A     72  38  29 SW5G12    29.93R
AURORA         PTSUNNY   72  39  30 S13       29.94S
FRONT RANGE AP FAIR      73  37  27 SW9G16    29.94R
ERIE MUNI ARPT FAIR      76  36  23 CALM      29.90S
BOULDER MUN AP FAIR      77  37  24 E8        29.91R
CENTENNIAL     PTSUNNY   72  40  31 S5        29.97S
BROOMFIELD     FAIR      73  37  27 W9        29.95R
FORT COLLINS   FAIR      66  48  52 N7        29.89S
LONGMONT       FAIR      71  46  41 SW6       29.91R
$$

COZ041-046-047-076>085-087-088-221400-
...PIKES PEAK/PALMER DIVIDE AND SOUTHERN FOOTHILLS...

CITY           SKY/WX    TMP DP  RH WIND       PRES   REMARKS
COLO. SPRINGS  PTSUNNY   73  38  27 CALM      30.01S
A. F. ACADEMY  PTSUNNY   71  39  30 NE8       30.03F
SCHRIEVER AFB  NOT AVBL
CHEYENNE MTN   NOT AVBL
ELLICOTT       FAIR     N/A N/A N/A CALM      29.99F
FALCON           N/A     75  32  20 NW10      30.07S
FORT CARSON    PTSUNNY   66  42  42 NW6       29.98S
LIMON          FAIR      64  42  44 NW6       29.94F
MONUMENT HILL  FAIR      68  36  30 SW8       30.09S
CANON CITY     SUNNY     73  37  27 W16       29.96S
WALSENBURG     FAIR      68  41  37 SW6       30.02S
TRINIDAD       FAIR      69  49  48 W20G28    29.99S
$$

COZ042>045-048>051-090-091-221400-
...NORTHEAST COLORADO...

CITY           SKY/WX    TMP DP  RH WIND       PRES   REMARKS
GREELEY ARPT   FAIR      65  52  62 CALM      29.88R
AKRON          FAIR      71  40  32 W16       29.86R
BURLINGTON     FAIR      73  53  49 W20       29.82F
WRAY           FAIR      70  45  40 W10G18    29.76F
YUMA           FAIR      72  43  35 W10       29.81R
STERLING       FAIR      63  50  63 SW3       29.81S
HOLYOKE        NOT AVBL
FORT MORGAN    FAIR      69  42  37 W8        29.86S
$$

COZ086-089-092>099-221400-
...SOUTHEAST COLORADO...

CITY           SKY/WX    TMP DP  RH WIND       PRES   REMARKS
PUEBLO         FAIR      59  49  69 CALM      29.92R
LA JUNTA       FAIR      72  54  53 W12       29.86S
LAMAR          FAIR      74  56  53 W9        29.80S
SPRINGFIELD      N/A     67  56  67 SW12      29.87F
$$




USA.gov is the U.S. government's official web portal to all federal, state and local government web resources and services.